Total_Precipitation_Accumulation
0.05 0.02 0.03 0.03 0.06 0.07 0.06 0.08 0.11 0.12 0.11 0.10 0.10 0.11 0.12 0.10 0.08 0.07 0.06 0.09 0.13 0.19 0.23 0.24 0.21 0.19 0.19 0.19 0.15 0.11 0.09 0.08 0.11 0.12 0.15 0.18 0.19 0.19 0.19 0.19 0.23 0.22 0.13
0.04 0.01 0.02 0.01 0.03 0.06 0.06 0.09 0.10 0.11 0.12 0.13 0.13 0.15 0.15 0.10 0.08 0.07 0.07 0.10 0.15 0.20 0.21 0.21 0.19 0.17 0.17 0.15 0.11 0.09 0.08 0.09 0.15 0.21 0.24 0.26 0.30 0.24 0.21 0.20 0.26 0.30 0.20
0.03 0.01 0.02 0.01 0.02 0.04 0.06 0.09 0.09 0.09 0.11 0.12 0.13 0.12 0.10 0.08 0.07 0.06 0.06 0.10 0.15 0.16 0.15 0.12 0.10 0.11 0.11 0.09 0.07 0.08 0.08 0.12 0.20 0.31 0.52 0.46 0.35 0.23 0.22 0.20 0.18 0.16 0.19
0.03 0.01 0.01 0.01 0.02 0.03 0.04 0.07 0.10 0.10 0.10 0.10 0.11 0.09 0.08 0.08 0.07 0.07 0.08 0.10 0.13 0.12 0.09 0.07 0.07 0.07 0.08 0.07 0.06 0.07 0.10 0.16 0.28 0.48 0.91 0.71 0.46 0.30 0.25 0.22 0.19 0.15 0.17
0.03 0.02 0.02 0.02 0.03 0.05 0.04 0.04 0.09 0.12 0.12 0.11 0.11 0.11 0.11 0.10 0.09 0.09 0.09 0.11 0.11 0.11 0.12 0.12 0.10 0.07 0.06 0.07 0.07 0.09 0.15 0.23 0.41 0.75 1.18 1.02 0.78 0.51 0.32 0.28 0.30 0.24 0.21
0.05 0.03 0.03 0.04 0.04 0.07 0.07 0.06 0.07 0.10 0.13 0.14 0.14 0.14 0.13 0.13 0.11 0.09 0.10 0.10 0.11 0.12 0.15 0.17 0.13 0.07 0.06 0.06 0.07 0.12 0.19 0.31 0.50 0.84 1.28 1.23 0.87 0.53 0.37 0.34 0.34 0.29 0.24
0.10 0.06 0.05 0.06 0.06 0.08 0.09 0.09 0.10 0.09 0.12 0.16 0.16 0.14 0.13 0.13 0.12 0.12 0.12 0.11 0.12 0.16 0.18 0.15 0.09 0.05 0.05 0.06 0.09 0.13 0.22 0.39 0.58 1.03 1.35 1.18 1.03 0.62 0.43 0.39 0.38 0.31 0.23
0.15 0.10 0.09 0.11 0.09 0.09 0.12 0.13 0.16 0.17 0.16 0.18 0.17 0.15 0.13 0.12 0.13 0.15 0.14 0.14 0.16 0.20 0.19 0.10 0.05 0.03 0.03 0.04 0.07 0.12 0.23 0.33 0.49 1.00 1.33 1.03 0.82 0.55 0.41 0.39 0.36 0.30 0.25
0.22 0.19 0.16 0.14 0.12 0.13 0.15 0.14 0.17 0.20 0.19 0.17 0.16 0.18 0.18 0.19 0.19 0.18 0.17 0.17 0.19 0.20 0.14 0.07 0.04 0.03 0.03 0.03 0.04 0.08 0.17 0.30 0.51 0.73 0.80 0.77 0.64 0.50 0.37 0.27 0.21 0.19 0.18
0.39 0.33 0.26 0.23 0.21 0.15 0.12 0.15 0.17 0.20 0.22 0.18 0.15 0.17 0.19 0.18 0.16 0.16 0.14 0.15 0.16 0.15 0.11 0.07 0.05 0.04 0.03 0.02 0.03 0.06 0.12 0.22 0.32 0.56 0.81 0.69 0.55 0.52 0.47 0.32 0.20 0.15 0.15
0.58 0.53 0.33 0.30 0.32 0.23 0.14 0.12 0.15 0.18 0.19 0.15 0.12 0.13 0.13 0.21 0.26 0.23 0.15 0.16 0.14 0.13 0.11 0.09 0.06 0.04 0.03 0.02 0.03 0.05 0.07 0.13 0.30 0.61 0.88 0.73 0.58 0.58 0.51 0.39 0.26 0.21 0.17
0.79 0.75 0.60 0.40 0.34 0.34 0.23 0.20 0.19 0.16 0.16 0.15 0.19 0.17 0.21 0.39 0.49 0.38 0.35 0.27 0.20 0.17 0.14 0.12 0.09 0.06 0.04 0.03 0.02 0.04 0.05 0.12 0.33 0.62 0.67 0.56 0.56 0.61 0.62 0.48 0.33 0.26 0.23
1.05 0.85 0.88 0.72 0.56 0.61 0.58 0.42 0.34 0.30 0.33 0.30 0.39 0.40 0.47 0.58 0.52 0.50 0.58 0.41 0.30 0.23 0.21 0.20 0.11 0.09 0.08 0.08 0.08 0.06 0.08 0.14 0.30 0.49 0.54 0.52 0.56 0.66 0.70 0.58 0.44 0.37 0.34
1.42 1.16 1.02 0.96 0.81 0.78 0.83 0.69 0.57 0.51 0.52 0.52 0.60 0.55 0.69 0.77 0.72 0.70 0.76 0.58 0.51 0.44 0.44 0.37 0.27 0.23 0.17 0.14 0.14 0.16 0.17 0.18 0.26 0.39 0.54 0.55 0.57 0.71 0.77 0.72 0.59 0.49 0.44
1.52 1.46 1.21 1.17 1.04 1.03 1.11 0.93 0.82 0.80 0.70 0.68 0.74 0.72 0.77 0.80 0.82 0.89 0.81 0.75 0.69 0.68 0.68 0.54 0.49 0.46 0.34 0.31 0.29 0.29 0.33 0.30 0.30 0.36 0.47 0.54 0.55 0.69 0.84 0.86 0.76 0.66 0.63
1.26 1.39 1.46 1.35 1.25 1.12 1.11 1.07 0.95 0.82 0.85 0.85 0.86 0.82 0.80 0.86 1.03 1.08 1.02 1.02 0.98 1.00 1.07 0.91 0.76 0.76 0.67 0.62 0.57 0.58 0.59 0.57 0.54 0.58 0.71 0.67 0.60 0.65 0.81 0.93 0.93 0.90 0.88
1.26 1.35 1.46 1.41 1.33 1.28 1.29 1.28 1.15 1.02 0.99 1.03 1.08 1.14 1.02 1.00 1.19 1.24 1.34 1.34 1.29 1.27 1.31 1.31 1.21 1.18 1.09 1.04 0.92 0.76 0.73 0.83 0.89 0.81 0.85 0.91 0.81 0.78 0.77 0.84 0.90 0.96 0.99
1.11 1.24 1.28 1.35 1.34 1.44 1.57 1.64 1.42 1.37 1.34 1.37 1.31 1.35 1.24 1.21 1.36 1.51 1.58 1.59 1.57 1.55 1.62 1.68 1.65 1.49 1.39 1.30 1.19 1.00 0.92 0.93 1.04 1.13 1.10 1.17 1.26 1.15 1.01 0.92 0.91 0.96 1.01
0.96 1.24 1.36 1.44 1.57 1.61 1.70 1.85 1.83 1.84 1.81 1.75 1.75 1.68 1.72 1.73 1.70 1.78 1.86 1.94 1.99 2.05 2.05 1.98 1.98 1.78 1.73 1.65 1.47 1.34 1.18 1.13 1.14 1.17 1.24 1.22 1.26 1.25 1.17 1.05 0.97 0.95 1.01
0.99 1.26 1.47 1.64 1.85 2.07 2.09 2.18 2.13 2.28 2.44 2.46 2.56 2.48 2.33 2.34 2.36 2.44 2.40 2.42 2.43 2.48 2.37 2.34 2.32 2.14 1.98 1.94 1.66 1.49 1.37 1.28 1.25 1.21 1.22 1.20 1.12 1.04 1.06 1.05 1.05 0.97 0.97
1.41 1.45 1.55 1.69 1.86 2.03 2.31 2.59 2.73 2.82 3.07 3.19 3.30 3.43 3.39 3.31 3.38 3.38 3.28 3.17 3.02 2.88 2.72 2.64 2.49 2.31 2.12 2.03 1.90 1.61 1.29 1.11 1.12 1.09 1.08 1.13 1.13 1.04 1.00 1.01 0.97 0.90 0.88
1.66 1.65 1.72 1.82 2.04 2.29 2.64 3.06 3.49 3.68 3.85 3.87 3.91 4.09 4.18 4.20 4.32 4.40 4.29 4.07 3.86 3.48 3.05 2.75 2.54 2.39 2.19 2.13 2.02 1.93 1.53 1.22 1.00 0.85 0.89 0.92 0.96 0.99 0.94 0.88 0.85 0.86 0.86
1.68 1.77 1.86 2.14 2.52 2.95 3.41 3.89 4.32 4.62 4.65 4.59 4.35 4.39 4.50 4.49 4.54 4.70 4.68 4.41 4.02 3.46 2.94 2.75 2.63 2.45 2.29 2.20 2.03 2.02 1.72 1.43 1.15 0.88 0.75 0.72 0.73 0.73 0.73 0.73 0.72 0.75 0.74
1.68 1.86 1.98 2.29 2.81 3.27 3.73 4.36 4.87 5.17 5.31 5.39 5.20 4.89 4.72 4.56 4.45 4.37 4.24 3.86 3.41 3.05 2.77 2.66 2.60 2.38 2.33 2.18 2.06 1.80 1.57 1.36 1.20 0.99 0.82 0.70 0.65 0.61 0.60 0.62 0.62 0.66 0.66
1.62 1.67 1.78 2.18 2.76 3.49 4.19 4.71 5.17 5.55 5.68 5.61 5.28 4.90 4.49 4.16 3.77 3.43 3.11 2.87 2.73 2.51 2.30 2.21 2.16 2.08 1.94 1.82 1.77 1.70 1.61 1.40 1.13 0.93 0.85 0.78 0.75 0.70 0.63 0.62 0.62 0.62 0.62
1.35 1.51 1.76 2.11 2.79 3.55 4.14 4.62 4.96 5.29 5.31 5.05 4.65 4.19 3.88 3.51 3.09 2.68 2.49 2.27 2.12 1.93 1.71 1.58 1.55 1.57 1.60 1.63 1.65 1.59 1.52 1.45 1.30 1.15 1.03 0.92 0.90 0.88 0.78 0.71 0.70 0.69 0.69